Wind_Speed
8 9 8 7 6 5 4 5 7 9 12 14 16 18 19 21 22 23 23 22 22 24
11 11 11 10 8 7 6 6 7 9 10 12 15 17 18 20 21 22 23 23 24 24
13 14 13 13 11 9 9 8 8 9 10 12 14 16 18 19 20 22 23 25 27 27
17 16 16 16 15 13 12 12 11 12 12 14 15 17 19 20 22 24 25 26 28 29
19 19 18 19 18 17 15 15 15 15 16 17 18 20 22 23 24 26 27 28 30 31
22 21 22 22 21 21 20 19 19 20 20 21 22 24 25 27 28 29 30 31 32 32
24 24 25 24 24 24 24 24 23 23 24 25 27 28 30 31 32 33 34 34 35 35
26 26 27 27 27 27 27 27 28 28 28 29 31 31 34 35 36 37 38 39 39 39
26 27 28 28 29 29 29 30 31 31 33 34 35 36 37 36 38 39 40 41 42 43
26 26 27 28 30 30 31 33 34 35 36 38 39 39 39 39 39 39 42 43 44 45
24 25 27 29 30 31 33 35 37 38 39 40 41 40 41 41 42 43 44 44 45 45
23 25 27 29 30 32 35 36 38 39 41 42 44 42 42 40 42 45 47 46 45 44
24 27 29 31 32 33 35 36 37 39 39 40 42 40 40 38 38 42 43 44 44 42
26 28 28 30 30 30 31 33 34 36 37 38 37 38 35 32 30 33 37 40 42 40
Wind_Direction
269 274 277 279 284 300 327 351 7 9 7 5 3 1 360 358 355 354 349 344 339 334
262 265 265 263 267 282 300 324 337 345 351 350 349 347 348 348 345 345 343 341 337 330
258 261 263 263 264 270 280 293 305 316 324 332 334 334 335 336 337 336 335 335 334 330
255 256 257 257 259 262 270 278 288 298 308 315 319 322 325 327 328 329 329 328 327 325
257 259 259 259 260 264 270 278 284 291 298 305 310 314 317 319 320 321 321 322 320 319
261 262 262 262 266 269 272 277 281 287 293 298 302 306 310 311 312 313 314 314 313 314
265 265 266 267 268 272 274 277 280 283 288 293 296 301 304 306 306 306 306 307 307 309
265 266 268 270 272 273 275 277 280 283 287 289 292 296 298 300 302 302 302 303 304 305
263 266 269 272 276 278 279 280 282 284 286 288 291 293 294 296 296 295 296 297 299 299
266 269 272 274 276 279 281 283 284 286 287 288 289 291 292 294 292 291 291 292 294 294
274 276 277 279 282 284 285 287 289 289 290 291 290 292 291 291 291 289 289 289 290 290
281 282 284 286 288 290 291 291 292 292 293 293 292 293 293 294 291 289 289 288 287 287
291 292 292 294 295 296 297 297 297 297 297 297 298 297 297 295 292 289 289 288 286 287
297 296 297 298 300 302 302 303 304 303 302 301 301 301 300 297 293 290 292 293 294 295
Height
1548 1549 1549 1548 1547 1545 1544 1543 1542 1540 1539 1538 1537 1536 1534 1533 1531 1529 1528 1527 1525 1522
1545 1546 1546 1545 1544 1543 1542 1541 1539 1538 1537 1536 1535 1534 1533 1532 1530 1528 1526 1524 1522 1519
1541 1542 1542 1542 1541 1540 1539 1538 1537 1536 1534 1533 1533 1532 1531 1530 1528 1525 1523 1520 1518 1515
1537 1538 1538 1538 1537 1536 1535 1534 1533 1532 1531 1530 1530 1529 1528 1526 1524 1521 1519 1516 1513 1512
1533 1533 1533 1533 1532 1532 1532 1531 1530 1528 1528 1527 1526 1524 1523 1521 1518 1516 1514 1511 1509 1507
1529 1529 1529 1528 1528 1528 1527 1526 1525 1524 1523 1522 1521 1519 1517 1515 1513 1510 1508 1506 1504 1501
1525 1524 1524 1524 1523 1522 1521 1520 1519 1518 1518 1516 1515 1513 1511 1509 1506 1503 1501 1500 1498 1495
1518 1518 1517 1517 1516 1516 1515 1514 1513 1511 1510 1509 1508 1506 1504 1501 1497 1495 1493 1491 1488 1487
1511 1511 1510 1510 1510 1509 1509 1507 1505 1504 1502 1501 1499 1498 1496 1493 1489 1487 1484 1481 1479 1478
1505 1504 1504 1504 1503 1503 1501 1499 1497 1495 1493 1491 1490 1489 1486 1484 1480 1476 1474 1472 1469 1467
1499 1499 1499 1498 1497 1495 1492 1490 1487 1485 1483 1480 1480 1478 1476 1473 1469 1466 1463 1461 1459 1456
1495 1494 1492 1491 1489 1487 1483 1481 1478 1475 1473 1470 1468 1467 1464 1462 1458 1453 1449 1448 1446 1444
1489 1487 1485 1483 1480 1478 1475 1471 1468 1465 1463 1460 1456 1456 1453 1450 1445 1440 1437 1434 1432 1432
1483 1480 1478 1475 1473 1470 1467 1463 1460 1456 1454 1451 1448 1444 1441 1439 1436 1432 1427 1423 1420 1418